Time,TemperatureF,DewpointF,PressureIn,WindDirection,WindDirectionDegrees,WindSpeedMPH,WindSpeedGustMPH,Humidity,HourlyPrecipIn,Conditions,Clouds,dailyrainin,SoftwareType,DateUTC
2013-01-30 00:01:00,43.4,39.2,30.20,ESE,103,1.0,0.0,85,0.00,,---,0.00,VWS V14.01,2013-01-30 08:01:00,
2013-01-30 00:06:00,43.5,39.3,30.20,ESE,111,0.0,0.0,85,0.00,,---,0.00,VWS V14.01,2013-01-30 08:06:00,
2013-01-30 00:11:00,43.5,39.0,30.20,NE,55,0.0,0.0,84,0.00,,---,0.00,VWS V14.01,2013-01-30 08:11:00,
2013-01-30 00:16:00,43.5,39.0,30.20,ESE,109,0.0,0.0,84,0.00,,---,0.00,VWS V14.01,2013-01-30 08:16:00,
2013-01-30 00:22:00,43.5,39.3,30.20,ESE,109,0.0,0.0,85,0.00,,---,0.00,VWS V14.01,2013-01-30 08:22:00,
2013-01-30 00:27:00,43.6,39.1,30.20,ESE,109,0.0,0.0,84,0.00,,---,0.00,VWS V14.01,2013-01-30 08:27:00,
2013-01-30 00:32:00,43.7,39.2,30.20,NE,51,0.0,0.0,84,0.00,,---,0.00,VWS V14.01,2013-01-30 08:32:00,
2013-01-30 00:37:00,44.0,39.5,30.20,East,86,0.0,0.0,84,0.00,,---,0.00,VWS V14.01,2013-01-30 08:37:00,
2013-01-30 00:42:00,44.2,39.4,30.19,ENE,62,0.0,0.0,83,0.00,,---,0.00,VWS V14.01,2013-01-30 08:42:00,
2013-01-30 00:47:00,44.2,39.4,30.20,ENE,62,0.0,0.0,83,0.00,,---,0.00,VWS V14.01,2013-01-30 08:47:00,
2013-01-30 00:52:00,44.2,39.1,30.19,NE,36,1.0,0.0,82,0.00,,---,0.00,VWS V14.01,2013-01-30 08:52:00,
2013-01-30 00:57:00,44.5,39.4,30.19,ESE,107,1.0,0.0,82,0.00,,---,0.00,VWS V14.01,2013-01-30 08:57:00,
2013-01-30 01:02:00,44.7,39.2,30.19,ESE,107,0.0,0.0,81,0.00,,---,0.00,VWS V14.01,2013-01-30 09:02:00,
2013-01-30 01:07:00,44.6,39.1,30.19,ESE,107,0.0,0.0,81,0.00,,---,0.00,VWS V14.01,2013-01-30 09:07:00,
2013-01-30 01:12:00,44.4,38.9,30.19,ESE,107,0.0,0.0,81,0.00,,---,0.00,VWS V14.01,2013-01-30 09:12:00,
2013-01-30 01:17:00,44.0,38.9,30.19,ESE,107,0.0,0.0,82,0.00,,---,0.00,VWS V14.01,2013-01-30 09:17:00,
2013-01-30 01:22:00,43.6,38.8,30.19,ESE,107,0.0,0.0,83,0.00,,---,0.00,VWS V14.01,2013-01-30 09:22:00,
2013-01-30 01:27:00,43.5,38.7,30.19,East,93,0.0,0.0,83,0.00,,---,0.00,VWS V14.01,2013-01-30 09:27:00,
2013-01-30 01:33:00,43.5,38.7,30.19,East,93,0.0,0.0,83,0.00,,---,0.00,VWS V14.01,2013-01-30 09:33:00,
2013-01-30 01:38:00,43.4,38.6,30.19,East,93,0.0,0.0,83,0.00,,---,0.00,VWS V14.01,2013-01-30 09:38:00,
2013-01-30 01:43:00,43.2,38.4,30.19,East,93,0.0,0.0,83,0.00,,---,0.00,VWS V14.01,2013-01-30 09:43:00,
2013-01-30 01:48:00,43.0,38.5,30.19,East,93,0.0,0.0,84,0.00,,---,0.00,VWS V14.01,2013-01-30 09:48:00,
2013-01-30 01:53:00,43.0,38.5,30.19,East,93,0.0,0.0,84,0.00,,---,0.00,VWS V14.01,2013-01-30 09:53:00,
2013-01-30 01:58:00,42.8,38.3,30.20,East,93,0.0,0.0,84,0.00,,---,0.00,VWS V14.01,2013-01-30 09:58:00,
2013-01-30 02:03:00,42.9,38.4,30.20,East,93,0.0,0.0,84,0.00,,---,0.00,VWS V14.01,2013-01-30 10:03:00,
2013-01-30 02:08:00,42.9,38.4,30.20,NE,43,0.0,0.0,84,0.00,,---,0.00,VWS V14.01,2013-01-30 10:08:00,
2013-01-30 02:13:00,43.0,38.5,30.20,NE,44,0.0,0.0,84,0.00,,---,0.00,VWS V14.01,2013-01-30 10:13:00,
2013-01-30 02:18:00,43.4,38.6,30.19,East,96,0.0,0.0,83,0.00,,---,0.00,VWS V14.01,2013-01-30 10:18:00,
2013-01-30 02:24:00,44.0,38.9,30.19,ENE,63,0.0,0.0,82,0.00,,---,0.00,VWS V14.01,2013-01-30 10:24:00,
2013-01-30 02:29:00,44.2,38.8,30.19,ENE,63,0.0,0.0,81,0.00,,---,0.00,VWS V14.01,2013-01-30 10:29:00,
2013-01-30 02:34:00,44.2,38.8,30.19,ENE,63,1.0,0.0,81,0.00,,---,0.00,VWS V14.01,2013-01-30 10:34:00,
2013-01-30 02:39:00,44.2,39.1,30.19,SE,133,0.0,0.0,82,0.00,,---,0.00,VWS V14.01,2013-01-30 10:39:00,
2013-01-30 02:44:00,44.1,39.0,30.19,SE,132,0.0,0.0,82,0.00,,---,0.00,VWS V14.01,2013-01-30 10:44:00,
2013-01-30 02:49:00,43.9,38.8,30.19,SE,132,1.0,0.0,82,0.00,,---,0.00,VWS V14.01,2013-01-30 10:49:00,
2013-01-30 02:54:00,43.8,38.7,30.18,NE,42,0.0,0.0,82,0.00,,---,0.00,VWS V14.01,2013-01-30 10:54:00,
2013-01-30 02:59:00,43.8,38.7,30.18,East,83,0.0,0.0,82,0.00,,---,0.00,VWS V14.01,2013-01-30 10:59:00,
2013-01-30 03:04:00,43.8,38.4,30.18,East,82,0.0,0.0,81,0.00,,---,0.00,VWS V14.01,2013-01-30 11:04:00,
2013-01-30 03:09:00,43.8,38.4,30.18,East,82,0.0,0.0,81,0.00,,---,0.00,VWS V14.01,2013-01-30 11:09:00,
2013-01-30 03:14:00,43.8,38.4,30.19,East,81,0.0,0.0,81,0.00,,---,0.00,VWS V14.01,2013-01-30 11:14:00,
2013-01-30 03:19:00,43.9,38.5,30.18,SE,137,1.0,0.0,81,0.00,,---,0.00,VWS V14.01,2013-01-30 11:19:00,
2013-01-30 03:25:00,43.8,38.4,30.19,SSE,157,0.0,0.0,81,0.00,,---,0.00,VWS V14.01,2013-01-30 11:25:00,
2013-01-30 03:30:00,43.8,38.4,30.19,SSE,157,0.0,0.0,81,0.00,,---,0.00,VWS V14.01,2013-01-30 11:30:00,
2013-01-30 03:35:00,43.6,38.2,30.19,SSE,157,0.0,0.0,81,0.00,,---,0.00,VWS V14.01,2013-01-30 11:35:00,
2013-01-30 03:40:00,43.4,38.0,30.19,SSE,157,0.0,0.0,81,0.00,,---,0.00,VWS V14.01,2013-01-30 11:40:00,
2013-01-30 03:45:00,43.2,37.8,30.19,SSE,157,0.0,0.0,81,0.00,,---,0.00,VWS V14.01,2013-01-30 11:45:00,
2013-01-30 03:50:00,43.0,37.9,30.19,SSE,157,0.0,0.0,82,0.00,,---,0.00,VWS V14.01,2013-01-30 11:50:00,
2013-01-30 03:55:00,43.0,37.9,30.19,SSE,157,0.0,0.0,82,0.00,,---,0.00,VWS V14.01,2013-01-30 11:55:00,
2013-01-30 04:00:00,43.0,37.9,30.19,SSE,156,1.0,0.0,82,0.00,,---,0.00,VWS V14.01,2013-01-30 12:00:00,
2013-01-30 04:05:00,43.1,38.0,30.19,SSE,157,0.0,0.0,82,0.00,,---,0.00,VWS V14.01,2013-01-30 12:05:00,
2013-01-30 04:10:00,43.0,38.2,30.19,SSE,157,0.0,0.0,83,0.00,,---,0.00,VWS V14.01,2013-01-30 12:10:00,
2013-01-30 04:15:00,42.8,37.7,30.19,SSE,156,0.0,0.0,82,0.00,,---,0.00,VWS V14.01,2013-01-30 12:15:00,
2013-01-30 04:20:00,42.5,37.7,30.19,SSE,157,0.0,0.0,83,0.00,,---,0.00,VWS V14.01,2013-01-30 12:20:00,
2013-01-30 04:25:00,42.3,37.5,30.19,SSE,157,0.0,0.0,83,0.00,,---,0.00,VWS V14.01,2013-01-30 12:25:00,
2013-01-30 04:30:00,42.1,37.9,30.19,SSE,157,0.0,0.0,85,0.00,,---,0.00,VWS V14.01,2013-01-30 12:30:00,
2013-01-30 04:36:00,41.9,38.0,30.19,SSE,157,0.0,0.0,86,0.00,,---,0.00,VWS V14.01,2013-01-30 12:36:00,
2013-01-30 04:41:00,41.7,37.8,30.18,SSE,156,0.0,0.0,86,0.00,,---,0.00,VWS V14.01,2013-01-30 12:41:00,
2013-01-30 04:46:00,41.7,38.1,30.19,SSE,157,0.0,0.0,87,0.00,,---,0.00,VWS V14.01,2013-01-30 12:46:00,
2013-01-30 04:51:00,41.6,37.7,30.19,SSE,157,0.0,0.0,86,0.00,,---,0.00,VWS V14.01,2013-01-30 12:51:00,
2013-01-30 04:56:00,41.5,37.6,30.19,SSE,157,0.0,0.0,86,0.00,,---,0.00,VWS V14.01,2013-01-30 12:56:00,
2013-01-30 05:01:00,41.5,37.6,30.19,SSE,157,0.0,0.0,86,0.00,,---,0.00,VWS V14.01,2013-01-30 13:01:00,
2013-01-30 05:06:00,41.3,37.4,30.19,SSE,156,0.0,0.0,86,0.00,,---,0.00,VWS V14.01,2013-01-30 13:06:00,
2013-01-30 05:11:00,41.2,37.3,30.19,SSE,157,0.0,0.0,86,0.00,,---,0.00,VWS V14.01,2013-01-30 13:11:00,
2013-01-30 05:16:00,41.0,37.1,30.19,SSE,157,0.0,0.0,86,0.00,,---,0.00,VWS V14.01,2013-01-30 13:16:00,
2013-01-30 05:21:00,40.8,36.9,30.19,SSE,156,0.0,0.0,86,0.00,,---,0.00,VWS V14.01,2013-01-30 13:21:00,
2013-01-30 05:26:00,40.9,37.0,30.19,SSE,157,0.0,0.0,86,0.00,,---,0.00,VWS V14.01,2013-01-30 13:26:00,
2013-01-30 05:31:00,40.9,37.0,30.20,SSE,157,0.0,0.0,86,0.00,,---,0.00,VWS V14.01,2013-01-30 13:31:00,
2013-01-30 05:36:00,40.8,36.9,30.20,SSE,156,0.0,0.0,86,0.00,,---,0.00,VWS V14.01,2013-01-30 13:36:00,
2013-01-30 05:41:00,40.7,36.8,30.20,SSE,157,0.0,0.0,86,0.00,,---,0.00,VWS V14.01,2013-01-30 13:41:00,
2013-01-30 05:46:00,40.5,36.7,30.20,SSE,156,0.0,0.0,86,0.00,,---,0.00,VWS V14.01,2013-01-30 13:46:00,
2013-01-30 05:51:00,40.4,36.5,30.20,SSE,157,0.0,0.0,86,0.00,,---,0.00,VWS V14.01,2013-01-30 13:51:00,
2013-01-30 05:57:00,40.4,36.5,30.20,SSE,157,0.0,0.0,86,0.00,,---,0.00,VWS V14.01,2013-01-30 13:57:00,
2013-01-30 06:02:00,40.3,36.8,30.21,SSE,157,0.0,0.0,87,0.00,,---,0.00,VWS V14.01,2013-01-30 14:02:00,
2013-01-30 06:07:00,40.3,37.0,30.21,SSE,157,0.0,0.0,88,0.00,,---,0.00,VWS V14.01,2013-01-30 14:07:00,
2013-01-30 06:12:00,40.2,36.9,30.21,SSE,157,0.0,0.0,88,0.00,,---,0.00,VWS V14.01,2013-01-30 14:12:00,
2013-01-30 06:17:00,40.1,36.8,30.21,SSE,156,0.0,0.0,88,0.00,,---,0.00,VWS V14.01,2013-01-30 14:17:00,
2013-01-30 06:22:00,39.9,36.6,30.21,SSE,157,0.0,0.0,88,0.00,,---,0.00,VWS V14.01,2013-01-30 14:22:00,
2013-01-30 06:27:00,39.9,36.6,30.21,SSE,157,0.0,0.0,88,0.00,,---,0.00,VWS V14.01,2013-01-30 14:27:00,
2013-01-30 06:32:00,39.7,36.4,30.22,SSE,157,0.0,0.0,88,0.00,,---,0.00,VWS V14.01,2013-01-30 14:32:00,
2013-01-30 06:37:00,39.7,36.7,30.22,SSE,157,0.0,0.0,89,0.00,,---,0.00,VWS V14.01,2013-01-30 14:37:00,
2013-01-30 06:42:00,39.7,36.4,30.22,SSE,157,0.0,0.0,88,0.00,,---,0.00,VWS V14.01,2013-01-30 14:42:00,
2013-01-30 06:47:00,39.8,36.8,30.22,SSE,156,0.0,0.0,89,0.00,,---,0.00,VWS V14.01,2013-01-30 14:47:00,
2013-01-30 06:52:00,39.7,36.4,30.22,SSE,157,0.0,0.0,88,0.00,,---,0.00,VWS V14.01,2013-01-30 14:52:00,
2013-01-30 06:57:00,39.7,36.4,30.22,SSE,156,0.0,0.0,88,0.00,,---,0.00,VWS V14.01,2013-01-30 14:57:00,
2013-01-30 07:02:00,39.6,36.3,30.22,SSE,157,0.0,0.0,88,0.00,,---,0.00,VWS V14.01,2013-01-30 15:02:00,
2013-01-30 07:08:00,39.5,36.2,30.23,SSE,157,0.0,0.0,88,0.00,,---,0.00,VWS V14.01,2013-01-30 15:08:00,
2013-01-30 07:13:00,39.4,36.2,30.22,SSE,157,0.0,0.0,88,0.00,,---,0.00,VWS V14.01,2013-01-30 15:13:00,
2013-01-30 07:18:00,39.3,36.0,30.23,SSE,157,0.0,0.0,88,0.00,,---,0.00,VWS V14.01,2013-01-30 15:18:00,
2013-01-30 07:23:00,39.2,36.2,30.23,SSE,156,0.0,0.0,89,0.00,,---,0.00,VWS V14.01,2013-01-30 15:23:00,
2013-01-30 07:28:00,39.2,36.2,30.23,SSE,156,0.0,0.0,89,0.00,,---,0.00,VWS V14.01,2013-01-30 15:28:00,
2013-01-30 07:33:00,39.2,36.2,30.23,SSE,156,0.0,0.0,89,0.00,,---,0.00,VWS V14.01,2013-01-30 15:33:00,
2013-01-30 07:38:00,39.2,36.2,30.23,SSE,157,0.0,0.0,89,0.00,,---,0.00,VWS V14.01,2013-01-30 15:38:00,
2013-01-30 07:43:00,39.2,36.2,30.23,SSE,157,0.0,0.0,89,0.00,,---,0.00,VWS V14.01,2013-01-30 15:43:00,
2013-01-30 07:48:00,39.3,36.3,30.23,SSE,157,0.0,0.0,89,0.00,,---,0.00,VWS V14.01,2013-01-30 15:48:00,
2013-01-30 07:53:00,39.3,36.3,30.23,SSE,157,1.0,0.0,89,0.00,,---,0.00,VWS V14.01,2013-01-30 15:53:00,
2013-01-30 07:58:00,39.5,36.8,30.24,SSE,157,0.0,0.0,90,0.00,,---,0.00,VWS V14.01,2013-01-30 15:58:00,
2013-01-30 08:03:00,39.7,36.7,30.24,SSE,157,0.0,0.0,89,0.00,,---,0.00,VWS V14.01,2013-01-30 16:03:00,
2013-01-30 08:08:00,40.0,37.0,30.24,SSE,156,1.0,0.0,89,0.00,,---,0.00,VWS V14.01,2013-01-30 16:08:00,
2013-01-30 08:13:00,40.2,37.2,30.24,SSE,156,0.0,0.0,89,0.00,,---,0.00,VWS V14.01,2013-01-30 16:13:00,
2013-01-30 08:18:00,40.4,37.4,30.24,SSE,157,0.0,0.0,89,0.00,,---,0.00,VWS V14.01,2013-01-30 16:18:00,
2013-01-30 08:23:00,40.6,37.3,30.25,SSE,157,0.0,0.0,88,0.00,,---,0.00,VWS V14.01,2013-01-30 16:23:00,
2013-01-30 08:28:00,40.9,37.6,30.25,SSE,157,0.0,0.0,88,0.00,,---,0.00,VWS V14.01,2013-01-30 16:28:00,
2013-01-30 08:33:00,41.3,38.0,30.25,SSE,157,0.0,0.0,88,0.00,,---,0.00,VWS V14.01,2013-01-30 16:33:00,
2013-01-30 08:38:00,41.5,38.2,30.25,SSE,157,0.0,0.0,88,0.00,,---,0.00,VWS V14.01,2013-01-30 16:38:00,
2013-01-30 08:43:00,41.7,38.4,30.25,SSE,156,0.0,0.0,88,0.00,,---,0.00,VWS V14.01,2013-01-30 16:43:00,
2013-01-30 08:49:00,42.0,38.7,30.25,SSE,157,0.0,0.0,88,0.00,,---,0.00,VWS V14.01,2013-01-30 16:49:00,
2013-01-30 08:54:00,42.4,38.8,30.25,SSE,157,0.0,0.0,87,0.00,,---,0.00,VWS V14.01,2013-01-30 16:54:00,
2013-01-30 08:59:00,42.7,39.1,30.25,SSE,157,0.0,0.0,87,0.00,,---,0.00,VWS V14.01,2013-01-30 16:59:00,
2013-01-30 09:04:00,43.2,39.6,30.25,SSE,157,0.0,0.0,87,0.00,,---,0.00,VWS V14.01,2013-01-30 17:04:00,
2013-01-30 09:09:00,43.8,39.9,30.25,SSE,157,0.0,0.0,86,0.00,,---,0.00,VWS V14.01,2013-01-30 17:09:00,
2013-01-30 09:14:00,44.7,40.5,30.25,SSE,157,0.0,0.0,85,0.00,,---,0.00,VWS V14.01,2013-01-30 17:14:00,
2013-01-30 09:19:00,45.6,41.0,30.25,SSE,156,0.0,0.0,84,0.00,,---,0.00,VWS V14.01,2013-01-30 17:19:00,
2013-01-30 09:24:00,46.5,41.3,30.25,SSE,157,0.0,0.0,82,0.00,,---,0.00,VWS V14.01,2013-01-30 17:24:00,
2013-01-30 09:29:00,47.5,42.0,30.25,SSE,157,0.0,0.0,81,0.00,,---,0.00,VWS V14.01,2013-01-30 17:29:00,
2013-01-30 09:34:00,48.3,42.1,30.26,SSE,156,0.0,0.0,79,0.00,,---,0.00,VWS V14.01,2013-01-30 17:34:00,
2013-01-30 09:39:00,49.0,42.1,30.26,SSE,157,0.0,0.0,77,0.00,,---,0.00,VWS V14.01,2013-01-30 17:39:00,
2013-01-30 09:45:00,49.5,41.6,30.26,South,188,1.0,0.0,74,0.00,,---,0.00,VWS V14.01,2013-01-30 17:45:00,
2013-01-30 09:50:00,49.9,41.6,30.26,South,189,0.0,0.0,73,0.00,,---,0.00,VWS V14.01,2013-01-30 17:50:00,
2013-01-30 09:55:00,50.5,42.5,30.26,South,190,0.0,0.0,74,0.00,,---,0.00,VWS V14.01,2013-01-30 17:55:00,
2013-01-30 10:00:00,51.0,41.9,30.26,South,189,0.0,0.0,71,0.00,,---,0.00,VWS V14.01,2013-01-30 18:00:00,
2013-01-30 10:05:00,51.5,42.8,30.26,NW,323,2.0,0.0,72,0.00,,---,0.00,VWS V14.01,2013-01-30 18:05:00,
2013-01-30 10:10:00,52.0,42.2,30.26,NW,316,0.0,0.0,69,0.00,,---,0.00,VWS V14.01,2013-01-30 18:10:00,
2013-01-30 10:15:00,52.4,42.2,30.26,NNW,335,2.0,0.0,68,0.00,,---,0.00,VWS V14.01,2013-01-30 18:15:00,
2013-01-30 10:20:00,52.7,42.1,30.26,NNW,337,3.0,0.0,67,0.00,,---,0.00,VWS V14.01,2013-01-30 18:20:00,
2013-01-30 10:25:00,52.7,42.1,30.26,West,279,1.0,0.0,67,0.00,,---,0.00,VWS V14.01,2013-01-30 18:25:00,
2013-01-30 10:30:00,52.7,42.1,30.26,WNW,294,0.0,0.0,67,0.00,,---,0.00,VWS V14.01,2013-01-30 18:30:00,
2013-01-30 10:35:00,52.7,41.7,30.26,North,11,2.0,0.0,66,0.00,,---,0.00,VWS V14.01,2013-01-30 18:35:00,
2013-01-30 10:41:00,52.7,41.7,30.26,WNW,288,1.0,0.0,66,0.00,,---,0.00,VWS V14.01,2013-01-30 18:41:00,
2013-01-30 10:46:00,52.7,41.7,30.26,WNW,293,0.0,0.0,66,0.00,,---,0.00,VWS V14.01,2013-01-30 18:46:00,
2013-01-30 10:51:00,52.9,41.9,30.25,NNW,339,2.0,0.0,66,0.00,,---,0.00,VWS V14.01,2013-01-30 18:51:00,
2013-01-30 10:56:00,53.0,41.6,30.26,WNW,287,1.0,0.0,65,0.00,,---,0.00,VWS V14.01,2013-01-30 18:56:00,
2013-01-30 11:01:00,53.1,41.7,30.25,NNW,328,1.0,0.0,65,0.00,,---,0.00,VWS V14.01,2013-01-30 19:01:00,
2013-01-30 11:06:00,53.3,41.8,30.25,NNW,341,1.0,0.0,65,0.00,,---,0.00,VWS V14.01,2013-01-30 19:06:00,
2013-01-30 11:11:00,53.5,42.0,30.25,North,355,2.0,0.0,65,0.00,,---,0.00,VWS V14.01,2013-01-30 19:11:00,
2013-01-30 11:16:00,53.7,42.6,30.25,NNW,336,0.0,0.0,66,0.00,,---,0.00,VWS V14.01,2013-01-30 19:16:00,
2013-01-30 11:21:00,54.0,42.5,30.25,West,275,2.0,0.0,65,0.00,,---,0.00,VWS V14.01,2013-01-30 19:21:00,
2013-01-30 11:26:00,54.5,42.6,30.25,NNW,327,1.0,0.0,64,0.00,,---,0.00,VWS V14.01,2013-01-30 19:26:00,
2013-01-30 11:31:00,54.8,42.5,30.24,NW,323,0.0,0.0,63,0.00,,---,0.00,VWS V14.01,2013-01-30 19:31:00,
2013-01-30 11:36:00,55.1,42.3,30.25,West,260,0.0,0.0,62,0.00,,---,0.00,VWS V14.01,2013-01-30 19:36:00,
2013-01-30 11:41:00,55.3,42.5,30.24,WNW,300,2.0,0.0,62,0.00,,---,0.00,VWS V14.01,2013-01-30 19:41:00,
2013-01-30 11:46:00,55.4,42.2,30.24,WNW,298,1.0,0.0,61,0.00,,---,0.00,VWS V14.01,2013-01-30 19:46:00,
2013-01-30 11:51:00,55.4,42.2,30.24,NNW,348,0.0,0.0,61,0.00,,---,0.00,VWS V14.01,2013-01-30 19:51:00,
2013-01-30 11:56:00,55.7,42.5,30.24,NW,326,0.0,0.0,61,0.00,,---,0.00,VWS V14.01,2013-01-30 19:56:00,
2013-01-30 12:02:00,55.9,42.7,30.23,NNW,329,0.0,0.0,61,0.00,,---,0.00,VWS V14.01,2013-01-30 20:02:00,
2013-01-30 12:07:00,56.1,42.4,30.23,WSW,256,0.0,0.0,60,0.00,,---,0.00,VWS V14.01,2013-01-30 20:07:00,
2013-01-30 12:12:00,56.3,42.6,30.23,NNE,17,0.0,0.0,60,0.00,,---,0.00,VWS V14.01,2013-01-30 20:12:00,
2013-01-30 12:17:00,56.8,43.9,30.23,NW,320,0.0,0.0,62,0.00,,---,0.00,VWS V14.01,2013-01-30 20:17:00,
2013-01-30 12:22:00,57.1,42.5,30.22,North,350,1.0,0.0,58,0.00,,---,0.00,VWS V14.01,2013-01-30 20:22:00,
2013-01-30 12:27:00,57.2,42.6,30.22,WNW,302,1.0,0.0,58,0.00,,---,0.00,VWS V14.01,2013-01-30 20:27:00,
2013-01-30 12:32:00,57.2,42.6,30.22,North,355,0.0,0.0,58,0.00,,---,0.00,VWS V14.01,2013-01-30 20:32:00,
2013-01-30 12:37:00,57.3,42.7,30.22,NW,325,4.0,0.0,58,0.00,,---,0.00,VWS V14.01,2013-01-30 20:37:00,
2013-01-30 12:42:00,57.4,42.8,30.21,NW,320,2.0,0.0,58,0.00,,---,0.00,VWS V14.01,2013-01-30 20:42:00,
2013-01-30 12:47:00,57.8,43.1,30.21,NNW,348,0.0,0.0,58,0.00,,---,0.00,VWS V14.01,2013-01-30 20:47:00,
2013-01-30 12:52:00,58.3,43.6,30.21,NNW,335,1.0,0.0,58,0.00,,---,0.00,VWS V14.01,2013-01-30 20:52:00,
2013-01-30 12:57:00,58.7,43.1,30.21,NW,314,0.0,0.0,56,0.00,,---,0.00,VWS V14.01,2013-01-30 20:57:00,
2013-01-30 13:02:00,59.0,43.3,30.21,WNW,295,0.0,0.0,56,0.00,,---,0.00,VWS V14.01,2013-01-30 21:02:00,
2013-01-30 13:07:00,59.5,43.8,30.21,SSE,167,0.0,0.0,56,0.00,,---,0.00,VWS V14.01,2013-01-30 21:07:00,
2013-01-30 13:12:00,60.0,43.3,30.21,WNW,286,2.0,0.0,54,0.00,,---,0.00,VWS V14.01,2013-01-30 21:12:00,
2013-01-30 13:17:00,60.1,43.4,30.20,WNW,295,0.0,0.0,54,0.00,,---,0.00,VWS V14.01,2013-01-30 21:17:00,
2013-01-30 13:22:00,59.9,43.2,30.20,South,190,0.0,0.0,54,0.00,,---,0.00,VWS V14.01,2013-01-30 21:22:00,
2013-01-30 13:28:00,60.2,43.0,30.20,NNW,336,0.0,0.0,53,0.00,,---,0.00,VWS V14.01,2013-01-30 21:28:00,
2013-01-30 13:33:00,60.7,43.5,30.20,WNW,303,0.0,0.0,53,0.00,,---,0.00,VWS V14.01,2013-01-30 21:33:00,
2013-01-30 13:38:00,61.1,43.4,30.20,NNW,347,2.0,0.0,52,0.00,,---,0.00,VWS V14.01,2013-01-30 21:38:00,
2013-01-30 13:43:00,61.2,43.5,30.19,NNE,32,2.0,0.0,52,0.00,,---,0.00,VWS V14.01,2013-01-30 21:43:00,
2013-01-30 13:48:00,61.7,43.9,30.20,WNW,282,0.0,0.0,52,0.00,,---,0.00,VWS V14.01,2013-01-30 21:48:00,
2013-01-30 13:53:00,62.0,44.2,30.19,SSE,163,1.0,0.0,52,0.00,,---,0.00,VWS V14.01,2013-01-30 21:53:00,
2013-01-30 13:58:00,61.7,43.9,30.19,NW,320,1.0,0.0,52,0.00,,---,0.00,VWS V14.01,2013-01-30 21:58:00,
2013-01-30 14:03:00,61.7,43.9,30.19,West,272,3.0,0.0,52,0.00,,---,0.00,VWS V14.01,2013-01-30 22:03:00,
2013-01-30 14:08:00,61.5,43.7,30.19,WNW,286,3.0,0.0,52,0.00,,---,0.00,VWS V14.01,2013-01-30 22:08:00,
2013-01-30 14:13:00,61.8,44.5,30.19,North,9,1.0,0.0,53,0.00,,---,0.00,VWS V14.01,2013-01-30 22:13:00,
2013-01-30 14:18:00,62.1,43.8,30.19,WNW,286,3.0,0.0,51,0.00,,---,0.00,VWS V14.01,2013-01-30 22:18:00,
2013-01-30 14:23:00,62.2,43.9,30.19,West,279,0.0,0.0,51,0.00,,---,0.00,VWS V14.01,2013-01-30 22:23:00,
2013-01-30 14:28:00,62.2,44.4,30.20,NW,319,2.0,0.0,52,0.00,,---,0.00,VWS V14.01,2013-01-30 22:28:00,
2013-01-30 14:33:00,62.5,44.2,30.20,West,270,0.0,0.0,51,0.00,,---,0.00,VWS V14.01,2013-01-30 22:33:00,
2013-01-30 14:38:00,62.6,44.2,30.20,West,281,0.0,0.0,51,0.00,,---,0.00,VWS V14.01,2013-01-30 22:38:00,
2013-01-30 14:43:00,62.7,44.3,30.19,SW,227,0.0,0.0,51,0.00,,---,0.00,VWS V14.01,2013-01-30 22:43:00,
2013-01-30 14:48:00,62.5,44.2,30.19,NNW,343,1.0,0.0,51,0.00,,---,0.00,VWS V14.01,2013-01-30 22:48:00,
2013-01-30 14:53:00,62.8,44.4,30.19,NW,320,4.0,0.0,51,0.00,,---,0.00,VWS V14.01,2013-01-30 22:53:00,
2013-01-30 14:58:00,63.1,44.7,30.19,NNW,346,0.0,0.0,51,0.00,,---,0.00,VWS V14.01,2013-01-30 22:58:00,
2013-01-30 15:04:00,63.0,44.6,30.19,NNW,337,2.0,0.0,51,0.00,,---,0.00,VWS V14.01,2013-01-30 23:04:00,
2013-01-30 15:09:00,62.9,44.5,30.19,SW,234,0.0,0.0,51,0.00,,---,0.00,VWS V14.01,2013-01-30 23:09:00,
2013-01-30 15:14:00,63.2,43.7,30.19,NNW,344,3.0,0.0,49,0.00,,---,0.00,VWS V14.01,2013-01-30 23:14:00,
2013-01-30 15:19:00,62.8,43.9,30.19,North,5,0.0,0.0,50,0.00,,---,0.00,VWS V14.01,2013-01-30 23:19:00,
2013-01-30 15:24:00,62.4,44.0,30.18,NNW,329,1.0,0.0,51,0.00,,---,0.00,VWS V14.01,2013-01-30 23:24:00,
2013-01-30 15:29:00,61.8,44.0,30.18,ESE,117,1.0,0.0,52,0.00,,---,0.00,VWS V14.01,2013-01-30 23:29:00,
2013-01-30 15:34:00,61.3,43.5,30.18,WNW,298,0.0,0.0,52,0.00,,---,0.00,VWS V14.01,2013-01-30 23:34:00,
2013-01-30 15:39:00,60.9,44.2,30.18,SSW,199,0.0,0.0,54,0.00,,---,0.00,VWS V14.01,2013-01-30 23:39:00,
2013-01-30 15:44:00,60.7,44.5,30.18,NNE,15,0.0,0.0,55,0.00,,---,0.00,VWS V14.01,2013-01-30 23:44:00,
2013-01-30 15:49:00,60.3,43.6,30.18,NW,315,0.0,0.0,54,0.00,,---,0.00,VWS V14.01,2013-01-30 23:49:00,
2013-01-30 15:54:00,59.9,43.7,30.18,NNW,348,0.0,0.0,55,0.00,,---,0.00,VWS V14.01,2013-01-30 23:54:00,
2013-01-30 15:59:00,59.4,43.7,30.18,NNE,23,1.0,0.0,56,0.00,,---,0.00,VWS V14.01,2013-01-30 23:59:00,
2013-01-30 16:04:00,59.0,44.3,30.18,West,263,0.0,0.0,58,0.00,,---,0.00,VWS V14.01,2013-01-31 00:04:00,
2013-01-30 16:09:00,58.6,43.9,30.18,NNW,327,2.0,0.0,58,0.00,,---,0.00,VWS V14.01,2013-01-31 00:09:00,
2013-01-30 16:14:00,58.2,43.5,30.18,NW,304,1.0,0.0,58,0.00,,---,0.00,VWS V14.01,2013-01-31 00:14:00,
2013-01-30 16:19:00,58.1,43.9,30.18,West,266,0.0,0.0,59,0.00,,---,0.00,VWS V14.01,2013-01-31 00:19:00,
2013-01-30 16:24:00,57.8,44.0,30.18,NNW,327,1.0,0.0,60,0.00,,---,0.00,VWS V14.01,2013-01-31 00:24:00,
2013-01-30 16:29:00,57.6,43.8,30.18,WNW,295,0.0,0.0,60,0.00,,---,0.00,VWS V14.01,2013-01-31 00:29:00,
2013-01-30 16:35:00,57.5,43.7,30.18,NNW,329,0.0,0.0,60,0.00,,---,0.00,VWS V14.01,2013-01-31 00:35:00,
2013-01-30 16:40:00,57.3,43.5,30.18,NW,321,1.0,0.0,60,0.00,,---,0.00,VWS V14.01,2013-01-31 00:40:00,
2013-01-30 16:45:00,57.1,43.8,30.18,WNW,286,0.0,0.0,61,0.00,,---,0.00,VWS V14.01,2013-01-31 00:45:00,
2013-01-30 16:50:00,56.9,43.6,30.18,WNW,295,0.0,0.0,61,0.00,,---,0.00,VWS V14.01,2013-01-31 00:50:00,
2013-01-30 16:55:00,56.6,43.8,30.18,WNW,302,0.0,0.0,62,0.00,,---,0.00,VWS V14.01,2013-01-31 00:55:00,
2013-01-30 17:00:00,56.4,44.0,30.18,WNW,302,0.0,0.0,63,0.00,,---,0.00,VWS V14.01,2013-01-31 01:00:00,
2013-01-30 17:05:00,56.1,43.7,30.18,WNW,302,0.0,0.0,63,0.00,,---,0.00,VWS V14.01,2013-01-31 01:05:00,
2013-01-30 17:10:00,55.8,43.8,30.18,WNW,302,0.0,0.0,64,0.00,,---,0.00,VWS V14.01,2013-01-31 01:10:00,
2013-01-30 17:15:00,55.3,43.8,30.19,WNW,302,1.0,0.0,65,0.00,,---,0.00,VWS V14.01,2013-01-31 01:15:00,
2013-01-30 17:20:00,54.8,43.7,30.19,WNW,301,0.0,0.0,66,0.00,,---,0.00,VWS V14.01,2013-01-31 01:20:00,
2013-01-30 17:25:00,54.2,43.5,30.19,WNW,302,0.0,0.0,67,0.00,,---,0.00,VWS V14.01,2013-01-31 01:25:00,
2013-01-30 17:30:00,53.7,43.4,30.19,WNW,302,0.0,0.0,68,0.00,,---,0.00,VWS V14.01,2013-01-31 01:30:00,
2013-01-30 17:36:00,53.3,43.0,30.19,WNW,302,0.0,0.0,68,0.00,,---,0.00,VWS V14.01,2013-01-31 01:36:00,
2013-01-30 17:41:00,52.7,42.8,30.19,WNW,302,0.0,0.0,69,0.00,,---,0.00,VWS V14.01,2013-01-31 01:41:00,
2013-01-30 17:46:00,52.3,42.8,30.19,WNW,302,0.0,0.0,70,0.00,,---,0.00,VWS V14.01,2013-01-31 01:46:00,
2013-01-30 17:51:00,52.0,42.5,30.19,WNW,302,0.0,0.0,70,0.00,,---,0.00,VWS V14.01,2013-01-31 01:51:00,
2013-01-30 17:56:00,51.8,42.7,30.19,WNW,302,0.0,0.0,71,0.00,,---,0.00,VWS V14.01,2013-01-31 01:56:00,
2013-01-30 18:01:00,51.6,42.9,30.19,WNW,302,0.0,0.0,72,0.00,,---,0.00,VWS V14.01,2013-01-31 02:01:00,
2013-01-30 18:06:00,51.4,42.7,30.19,WNW,302,0.0,0.0,72,0.00,,---,0.00,VWS V14.01,2013-01-31 02:06:00,
2013-01-30 18:11:00,51.2,42.9,30.19,WNW,302,0.0,0.0,73,0.00,,---,0.00,VWS V14.01,2013-01-31 02:11:00,
2013-01-30 18:16:00,50.9,42.9,30.19,WNW,302,0.0,0.0,74,0.00,,---,0.00,VWS V14.01,2013-01-31 02:16:00,
2013-01-30 18:21:00,50.7,42.7,30.19,WNW,302,0.0,0.0,74,0.00,,---,0.00,VWS V14.01,2013-01-31 02:21:00,
2013-01-30 18:26:00,50.6,43.0,30.19,WNW,302,0.0,0.0,75,0.00,,---,0.00,VWS V14.01,2013-01-31 02:26:00,
2013-01-30 18:31:00,50.4,42.8,30.19,WNW,302,0.0,0.0,75,0.00,,---,0.00,VWS V14.01,2013-01-31 02:31:00,
2013-01-30 18:36:00,50.2,42.6,30.19,WNW,302,0.0,0.0,75,0.00,,---,0.00,VWS V14.01,2013-01-31 02:36:00,
2013-01-30 18:41:00,50.0,42.7,30.20,WNW,302,0.0,0.0,76,0.00,,---,0.00,VWS V14.01,2013-01-31 02:41:00,
2013-01-30 18:46:00,49.8,42.5,30.19,WNW,302,0.0,0.0,76,0.00,,---,0.00,VWS V14.01,2013-01-31 02:46:00,
2013-01-30 18:51:00,49.6,42.4,30.19,WNW,300,0.0,0.0,76,0.00,,---,0.00,VWS V14.01,2013-01-31 02:51:00,
2013-01-30 18:56:00,49.3,42.4,30.19,WNW,302,0.0,0.0,77,0.00,,---,0.00,VWS V14.01,2013-01-31 02:56:00,
2013-01-30 19:01:00,49.0,42.1,30.19,WNW,302,0.0,0.0,77,0.00,,---,0.00,VWS V14.01,2013-01-31 03:01:00,
2013-01-30 19:06:00,48.7,42.2,30.19,WNW,302,0.0,0.0,78,0.00,,---,0.00,VWS V14.01,2013-01-31 03:06:00,
2013-01-30 19:11:00,48.5,42.0,30.19,WNW,302,0.0,0.0,78,0.00,,---,0.00,VWS V14.01,2013-01-31 03:11:00,
2013-01-30 19:16:00,48.3,42.1,30.19,WNW,302,0.0,0.0,79,0.00,,---,0.00,VWS V14.01,2013-01-31 03:16:00,
2013-01-30 19:22:00,48.1,41.9,30.19,WNW,302,0.0,0.0,79,0.00,,---,0.00,VWS V14.01,2013-01-31 03:22:00,
2013-01-30 19:27:00,47.9,41.7,30.19,WNW,302,0.0,0.0,79,0.00,,---,0.00,VWS V14.01,2013-01-31 03:27:00,
2013-01-30 19:32:00,47.7,41.8,30.19,WNW,302,0.0,0.0,80,0.00,,---,0.00,VWS V14.01,2013-01-31 03:32:00,
2013-01-30 19:37:00,47.6,41.8,30.18,WNW,302,0.0,0.0,80,0.00,,---,0.00,VWS V14.01,2013-01-31 03:37:00,
2013-01-30 19:42:00,47.4,41.5,30.18,WNW,302,0.0,0.0,80,0.00,,---,0.00,VWS V14.01,2013-01-31 03:42:00,
2013-01-30 19:47:00,47.1,41.3,30.18,WNW,302,0.0,0.0,80,0.00,,---,0.00,VWS V14.01,2013-01-31 03:47:00,
2013-01-30 19:52:00,46.9,41.4,30.19,WNW,302,0.0,0.0,81,0.00,,---,0.00,VWS V14.01,2013-01-31 03:52:00,
2013-01-30 19:57:00,46.8,41.6,30.19,WNW,302,0.0,0.0,82,0.00,,---,0.00,VWS V14.01,2013-01-31 03:57:00,
2013-01-30 20:02:00,46.7,41.5,30.19,WNW,302,0.0,0.0,82,0.00,,---,0.00,VWS V14.01,2013-01-31 04:02:00,
2013-01-30 20:07:00,46.5,41.6,30.19,WNW,302,0.0,0.0,83,0.00,,---,0.00,VWS V14.01,2013-01-31 04:07:00,
2013-01-30 20:12:00,46.4,41.5,30.19,WNW,302,0.0,0.0,83,0.00,,---,0.00,VWS V14.01,2013-01-31 04:12:00,
2013-01-30 20:17:00,46.3,41.4,30.19,WNW,302,0.0,0.0,83,0.00,,---,0.00,VWS V14.01,2013-01-31 04:17:00,
2013-01-30 20:22:00,46.3,41.4,30.19,WNW,302,0.0,0.0,83,0.00,,---,0.00,VWS V14.01,2013-01-31 04:22:00,
2013-01-30 20:27:00,46.1,41.2,30.19,WNW,302,0.0,0.0,83,0.00,,---,0.00,VWS V14.01,2013-01-31 04:27:00,
2013-01-30 20:32:00,46.1,41.2,30.19,WNW,302,0.0,0.0,83,0.00,,---,0.00,VWS V14.01,2013-01-31 04:32:00,
2013-01-30 20:37:00,45.9,41.3,30.19,WNW,302,0.0,0.0,84,0.00,,---,0.00,VWS V14.01,2013-01-31 04:37:00,
2013-01-30 20:43:00,45.8,41.2,30.19,WNW,302,0.0,0.0,84,0.00,,---,0.00,VWS V14.01,2013-01-31 04:43:00,
2013-01-30 20:48:00,45.6,41.0,30.19,WNW,302,1.0,0.0,84,0.00,,---,0.00,VWS V14.01,2013-01-31 04:48:00,
2013-01-30 20:53:00,45.5,41.3,30.19,WNW,302,0.0,0.0,85,0.00,,---,0.00,VWS V14.01,2013-01-31 04:53:00,
2013-01-30 20:58:00,45.4,41.2,30.19,WNW,302,0.0,0.0,85,0.00,,---,0.00,VWS V14.01,2013-01-31 04:58:00,
2013-01-30 21:00:00,45.4,41.2,30.19,WNW,302,0.0,0.0,85,0.00,,---,0.00,VWS V14.01,2013-01-31 05:00:00,
2013-01-30 21:01:00,45.3,41.1,30.19,WNW,302,0.0,0.0,85,0.00,,---,0.00,VWS V14.01,2013-01-31 05:01:00,
2013-01-30 21:04:00,45.3,41.1,30.19,WNW,302,0.0,0.0,85,0.00,,---,0.00,VWS V14.01,2013-01-31 05:04:00,
2013-01-30 21:09:00,45.2,41.3,30.20,East,79,0.0,0.0,86,0.00,,---,0.00,VWS V14.01,2013-01-31 05:09:00,
2013-01-30 21:14:00,45.3,41.4,30.20,East,79,0.0,0.0,86,0.00,,---,0.00,VWS V14.01,2013-01-31 05:14:00,
2013-01-30 21:19:00,45.3,41.4,30.19,East,79,0.0,0.0,86,0.00,,---,0.00,VWS V14.01,2013-01-31 05:19:00,
2013-01-30 21:24:00,45.4,41.5,30.19,East,79,0.0,0.0,86,0.00,,---,0.00,VWS V14.01,2013-01-31 05:24:00,
2013-01-30 21:29:00,45.3,41.4,30.19,East,84,0.0,0.0,86,0.00,,---,0.00,VWS V14.01,2013-01-31 05:29:00,
2013-01-30 21:34:00,45.3,41.4,30.19,East,96,0.0,0.0,86,0.00,,---,0.00,VWS V14.01,2013-01-31 05:34:00,
2013-01-30 21:39:00,45.2,41.3,30.19,East,96,0.0,0.0,86,0.00,,---,0.00,VWS V14.01,2013-01-31 05:39:00,
2013-01-30 21:44:00,45.2,41.3,30.19,East,96,0.0,0.0,86,0.00,,---,0.00,VWS V14.01,2013-01-31 05:44:00,
2013-01-30 21:49:00,45.2,41.6,30.20,East,96,0.0,0.0,87,0.00,,---,0.00,VWS V14.01,2013-01-31 05:49:00,
2013-01-30 21:54:00,45.2,41.3,30.20,East,96,0.0,0.0,86,0.00,,---,0.00,VWS V14.01,2013-01-31 05:54:00,
2013-01-30 22:04:00,45.3,41.7,30.20,East,101,0.0,0.0,87,0.00,,---,0.00,VWS V14.01,2013-01-31 06:04:00,
2013-01-30 22:10:00,45.3,41.4,30.20,East,101,0.0,0.0,86,0.00,,---,0.00,VWS V14.01,2013-01-31 06:10:00,
2013-01-30 22:15:00,45.3,41.7,30.20,East,101,0.0,0.0,87,0.00,,---,0.00,VWS V14.01,2013-01-31 06:15:00,
2013-01-30 22:20:00,45.1,41.5,30.20,East,101,0.0,0.0,87,0.00,,---,0.00,VWS V14.01,2013-01-31 06:20:00,
2013-01-30 22:25:00,45.0,41.4,30.20,East,101,0.0,0.0,87,0.00,,---,0.00,VWS V14.01,2013-01-31 06:25:00,
2013-01-30 22:30:00,44.9,41.3,30.19,East,101,0.0,0.0,87,0.00,,---,0.00,VWS V14.01,2013-01-31 06:30:00,
2013-01-30 22:35:00,44.8,41.2,30.19,East,101,0.0,0.0,87,0.00,,---,0.00,VWS V14.01,2013-01-31 06:35:00,
2013-01-30 22:40:00,44.7,41.1,30.19,East,101,0.0,0.0,87,0.00,,---,0.00,VWS V14.01,2013-01-31 06:40:00,
2013-01-30 22:45:00,44.6,41.0,30.19,East,101,0.0,0.0,87,0.00,,---,0.00,VWS V14.01,2013-01-31 06:45:00,
2013-01-30 22:50:00,44.5,41.2,30.19,East,101,0.0,0.0,88,0.00,,---,0.00,VWS V14.01,2013-01-31 06:50:00,
2013-01-30 22:55:00,44.5,41.2,30.19,ESE,102,0.0,0.0,88,0.00,,---,0.00,VWS V14.01,2013-01-31 06:55:00,
2013-01-30 23:00:00,44.5,40.9,30.20,East,101,0.0,0.0,87,0.00,,---,0.00,VWS V14.01,2013-01-31 07:00:00,
2013-01-30 23:05:00,44.3,40.7,30.20,East,101,0.0,0.0,87,0.00,,---,0.00,VWS V14.01,2013-01-31 07:05:00,
2013-01-30 23:10:00,44.2,40.9,30.20,East,101,0.0,0.0,88,0.00,,---,0.00,VWS V14.01,2013-01-31 07:10:00,
2013-01-30 23:15:00,44.1,40.8,30.20,East,101,0.0,0.0,88,0.00,,---,0.00,VWS V14.01,2013-01-31 07:15:00,
2013-01-30 23:20:00,44.1,40.8,30.20,East,101,0.0,0.0,88,0.00,,---,0.00,VWS V14.01,2013-01-31 07:20:00,
2013-01-30 23:25:00,44.0,40.7,30.20,East,101,0.0,0.0,88,0.00,,---,0.00,VWS V14.01,2013-01-31 07:25:00,
2013-01-30 23:30:00,44.0,40.7,30.20,East,101,0.0,0.0,88,0.00,,---,0.00,VWS V14.01,2013-01-31 07:30:00,
2013-01-30 23:35:00,43.9,40.6,30.20,East,101,0.0,0.0,88,0.00,,---,0.00,VWS V14.01,2013-01-31 07:35:00,
2013-01-30 23:40:00,43.8,40.8,30.20,East,101,0.0,0.0,89,0.00,,---,0.00,VWS V14.01,2013-01-31 07:40:00,
2013-01-30 23:45:00,43.8,40.8,30.20,East,101,0.0,0.0,89,0.00,,---,0.00,VWS V14.01,2013-01-31 07:45:00,
2013-01-30 23:51:00,43.8,40.8,30.20,East,101,0.0,0.0,89,0.00,,---,0.00,VWS V14.01,2013-01-31 07:51:00,
2013-01-30 23:56:00,43.7,40.7,30.20,East,101,0.0,0.0,89,0.00,,---,0.00,VWS V14.01,2013-01-31 07:56:00,